SCP
0 0 0 0 0 0 0 0 0 0 0 0 0 0 0 0 0 0 0 0 0 0 0 0 0 0 0 0 0 0 0 0 0 0 0 0 0 0 0 0 -0 -0 0 0
0 0 0 0 0 0 0 0 0 0 0 0 0 0 0 0 0 0 0 0 0 0 0 0 0 0 0 0 0 0 0 0 0 0 0 0 0 -0 -0 -0 0 0 0 0
0 0 0 0 0 0 0 0 0 0 0 0 0 0 0 0 0 0 0 0 0 0 0 0 0 0 0 0 0 0 0 0 0 0 0 0 -0 -0 -0 -0 0 0 0 0
-0 -0 -0 -0 0 0 0 0 0 0 0 0 0 0 0 0 0 0 0 0 0 0 -0 -0 -0 -0 -0 -0 -0 0 0 -0 -0 -0 -0 -0 -0 -0 -0 -0 -0 0 0 0
-0 -0 -0 -0 -0 0 0 0 0 0 0 0 0 0 -0 -0 0 -0 -0 -0 -0 -0 -0 -0 -0 -0 -0 -0 -0 -0 -0 -0 -0 -0 -0 -0 0 -0 -0 -0 -0 -0 0 0
0 0 0 -0 -0 -0 0 0 0 -0 0 0 0 0 -0 -0 -0 -0 -0 -0 -0 -0 -0 -0 -0 -0 -0 -0 -0 -0 -0 -0 -0 -0 -0 -0 0 0 0 0 0 0 0 0
0 0 0 0 -0 0 -0 0 -0 -0 0 -0 0 0 0 0 0 0 0 0 0 0 0 0 0 0 0 0 0 0 0 0 0 0 0 -0 0 0 0 0 0 0 0 0
0 0 0 0 0 0 0 0 0 0 0 0 0 0 0 0 0 0 0 0 0 0 0 0 0 0 0 0 0 0 0 0 0 0 0 0 0 0 0 0 0 0 0 0
0 0 0 0 0 0 0 0 0 0 0 0 0 0 0 0 0 0 0 0 0 0 0 0 0 0 0 0 0 0 0 0 0 0 0 0 0 0 0 0 0 0 0 0
0 0 0 0 0 0 0 0 0 0 0 0 0 0 0 0 0 0 0 0 0 0 0 0 0 0 0 0 0 0 0 0 0 0 0 0 0 0 0 0 0 0 0 0
0 0 0 0 0 0 0 0 0 0 0 0 0 0 0 0 0 0 0 0 0 0 0 0 0 0 0 0 0 0 0 0 0 0 0 0 0 0 0 0 0 0 0 0
0 0 0 0 0 0 0 0 0 0 0 0 0 0 0 0 0 0 0 0 0 0 0 0 0 0 0 0 0 0 0 0 0 0 0 0 0 0 0 0 0 0 0 0
0 0 0 0 0 0 0 0 0 0 0 0 0 0 0 0 0 0 0 0 0 0 0 0 0 0 0 0 0 0 0 0 0 0 0 0 0 0 0 0 0 0 0 0
0 0 0 0 0 0 0 0 0 0 0 0 0 0 0 0 0 0 0 0 0 0 0 0 0 0 0 0 0 0 0 0 0 0 0 0 0 0 0 0 0 0 0 0
0 0 0 0 0 0 0 0 0 0 0 0 0 0 0 0 0 0 0 0 0 0 0 0 0 0 0 0 0 0 0 0 0 0 0 0 0 0 0 0 0 0 0 0
0 0 0 0 0 0 0 0 0 0 0 0 0 0 0 0 0 0 0 0 0 0 0 0 0 0 0 0 0 0 0 0 0 0 0 0 0 0 0 0 0 0 0 0
0 0 0 0 0 0 0 0 0 0 0 0 0 0 0 0 0 0 0 0 0 0 0 0 0 0 0 0 0 0 0 0 0 0 0 0 0 0 0 0 0 0 0 0
0 0 0 0 0 0 0 0 0 0 0 0 0 0 0 0 0 0 0 0 0 0 0 0 0 0 0 0 0 0 0 0 0 0 0 0 0 0 0 0 0 0 0 0
0 0 0 0 0 0 0 0 0 0 0 0 0 0 0 0 0 0 0 0 0 0 0 0 0 0 0 0 0 0 0 0 0 0 0 0 0 0 0 0 0 0 0 -0
0 0 0 0 0 0 0 0 0 0 0 0 0 0 0 0 0 0 0 0 0 0 0 0 0 0 0 0 0 0 0 0 0 0 0 0 0 0 0 0 0 0 0 0
0 0 0 0 0 0 0 0 0 0 0 0 0 0 0 0 0 0 0 0 0 0 0 0 0 0 0 0 0 0 0 0 0 0 0 0 0 0 0 0 0 0 0 0
0 0 0 0 0 0 0 0 0 0 0 0 0 0 0 0 0 0 0 0 0 0 0 0 0 0 0 0 0 0 0 0 0 0 0 0 0 0 0 0 0 0 0 0
0 0 0 0 0 0 0 0 0 0 0 0 0 0 0 0 0 0 0 0 0 0 0 0 0 0 0 0 0 0 0 0 0 0 0 0 0 0 0 0 0 0 0 0
0 0 0 0 0 0 0 0 0 0 0 0 0 0 0 0 0 0 0 0 0 0 0 0 0 0 0 0 0 0 0 0 0 0 0 0 0 0 0 0 0 0 0 0
0 0 0 0 0 0 0 0 0 0 0 0 0 0 0 0 0 0 0 0 0 0 0 0 0 0 0 0 0 0 0 0 0 0 0 0 0 0 0 0 0 0 0 0
0 0 0 0 0 0 0 0 0 0 0 0 0 0 0 0 0 0 0 0 0 0 0 0 0 0 0 0 0 0 0 0 0 0 0 0 0 0 0 0 0 0 0 0
0 0 0 0 0 0 0 0 0 0 0 0 0 0 0 0 0 0 0 0 0 0 0 0 0 0 0 0 0 0 0 0 0 0 0 0 0 0 0 0 0 0 0 0
Wind_Speed_500mb
40 40 30 23 11 8 6 2 2 17 7 3 8 7 7 3 5 5 4 2 7 6 4 5 4 7 8 6 6 4 3 3 7 2 6 4 9 10 16 7 9 6 6 11
35 38 35 24 17 9 4 3 4 16 7 5 8 8 8 6 5 2 2 3 5 0 5 2 2 4 5 5 3 1 3 5 4 5 6 6 10 20 18 10 5 19 7 1
29 33 36 31 21 14 4 1 1 7 9 9 18 14 8 8 4 4 1 4 2 6 6 2 7 7 4 2 2 6 3 5 13 7 7 3 9 18 27 24 10 12 22 23
23 27 31 32 26 20 4 5 5 3 3 9 9 1 7 12 6 2 2 4 3 3 5 6 6 5 8 5 5 1 5 8 7 19 20 19 25 25 29 37 37 18 18 24
16 20 24 28 29 17 16 3 2 5 7 2 3 2 5 7 6 6 7 2 5 3 1 5 5 10 9 7 14 9 6 5 6 9 12 15 29 36 37 38 39 41 43 46
11 14 18 21 24 21 10 6 7 2 3 1 4 4 7 8 9 3 2 2 6 7 1 1 2 2 3 1 5 16 7 5 3 8 1 20 26 35 38 26 24 27 32 20
7 10 13 14 16 17 14 8 5 4 5 4 1 4 2 6 5 1 5 5 6 5 9 8 4 2 4 10 8 8 7 8 3 9 15 10 5 9 9 34 7 17 20 13
7 6 10 12 12 12 13 13 4 3 2 4 7 9 5 5 4 4 4 4 2 9 4 5 6 6 5 9 5 12 8 12 7 7 10 21 4 1 6 12 7 5 8 5
12 7 8 9 9 9 9 11 9 2 4 5 7 12 12 6 8 6 5 2 11 9 6 6 7 8 1 7 6 2 12 12 12 6 7 7 4 5 3 4 10 8 3 15
18 11 9 9 7 8 7 8 9 2 6 5 11 6 4 6 4 2 7 8 7 8 7 7 8 6 1 6 8 11 8 12 24 18 9 15 11 5 2 6 7 6 15 20
23 17 12 8 7 8 9 6 8 5 3 8 14 13 10 7 5 6 12 8 7 10 9 6 4 6 4 5 2 9 16 16 10 13 11 16 9 12 7 8 6 13 15 15
28 23 17 12 9 10 10 11 10 9 8 11 11 19 22 19 14 7 11 7 3 7 7 4 3 7 6 7 4 10 8 6 3 13 6 12 11 9 9 6 6 9 10 11
30 27 20 16 13 11 12 13 14 14 5 10 9 14 26 28 27 25 11 6 9 5 9 5 3 12 3 7 10 8 11 16 8 5 2 12 20 9 5 3 4 3 7 11
33 28 21 19 18 17 16 16 15 12 5 6 5 13 13 13 16 27 37 22 9 11 6 6 6 7 3 4 7 6 3 15 13 14 24 12 14 11 9 4 1 3 6 12
38 31 26 22 21 19 19 23 21 14 9 2 4 13 17 19 17 15 20 30 19 9 7 6 6 4 5 6 4 14 20 16 15 11 5 6 16 13 8 6 1 6 14 19
41 36 30 25 23 19 14 11 7 8 7 2 3 6 7 8 10 11 16 15 12 13 11 9 9 10 5 6 8 7 21 16 16 18 11 5 10 18 9 6 5 13 19 25
45 38 36 30 27 22 14 9 7 9 3 3 7 3 3 5 6 5 6 14 9 8 7 9 7 8 10 6 14 8 15 17 14 14 11 8 13 11 2 10 17 25 28 26
39 52 42 35 30 26 24 25 20 17 8 7 3 3 4 11 6 5 8 5 7 8 6 3 6 5 8 11 26 34 23 15 14 13 14 15 17 4 6 17 26 35 40 48
57 48 36 30 23 14 18 22 25 24 14 5 7 5 2 13 6 6 6 7 6 4 7 7 7 8 16 20 29 22 28 24 25 23 18 9 3 7 16 23 29 28 38 47
58 51 28 15 14 16 14 7 6 10 9 10 9 6 5 10 8 6 7 4 3 5 7 6 8 13 45 24 22 18 30 30 32 26 15 5 8 15 23 31 36 42 50 54
59 22 16 23 29 16 8 9 9 10 8 13 11 19 8 12 6 5 7 4 4 6 5 6 6 8 17 28 25 27 34 35 25 12 4 10 16 25 33 40 45 50 57 61
47 28 40 34 11 9 7 7 6 10 9 14 13 12 13 8 9 7 6 5 4 8 12 6 8 7 10 23 35 34 35 24 11 9 14 19 26 33 37 43 49 55 61 70
50 11 12 14 9 9 13 15 9 8 12 16 16 10 10 6 8 6 7 10 8 6 6 8 9 6 7 20 34 41 23 6 9 18 24 31 37 43 46 52 54 59 64 69
11 13 11 9 10 10 9 5 4 5 12 27 22 13 7 7 9 5 7 4 5 7 8 11 6 13 16 15 30 46 21 9 27 33 35 42 52 57 55 58 61 63 69 70
8 10 7 9 4 4 10 11 9 11 19 25 14 7 8 6 6 7 5 8 10 10 8 1 15 19 22 29 28 26 25 42 67 62 61 66 68 66 61 62 65 69 70 67
5 4 3 3 6 5 7 11 7 16 21 17 7 5 5 9 6 11 17 8 13 5 4 2 16 26 17 26 38 40 50 70 68 63 75 78 70 65 62 69 74 71 63 64
5 5 7 9 1 6 10 14 12 20 18 5 5 9 13 2 8 8 7 7 1 5 9 19 38 36 33 37 42 54 63 77 75 76 68 65 66 64 69 78 79 70 61 64
Wind_Direction_500mb
20 23 28 23 29 55 52 74 304 348 134 150 73 66 70 79 75 48 67 64 41 132 155 159 163 175 39 138 173 176 83 290 177 151 91 316 302 249 217 252 182 242 296 278
22 23 24 33 21 24 73 337 29 19 94 92 95 118 88 73 138 58 53 81 6 80 138 196 128 110 54 129 200 7 149 218 189 195 181 188 230 214 228 256 290 237 264 173
19 23 26 24 24 14 62 56 4 39 53 39 119 131 124 125 102 118 67 111 169 163 149 28 164 141 109 119 32 10 347 290 268 304 32 40 206 214 212 213 214 238 229 262
8 20 20 23 22 26 49 27 72 85 84 68 98 82 149 146 150 151 184 162 257 194 160 169 159 136 144 167 169 146 287 277 318 283 277 253 255 247 214 220 230 251 267 286
4 9 18 19 21 30 50 26 163 83 92 57 194 158 139 157 136 183 165 210 151 213 282 1 174 183 203 201 184 203 189 266 322 277 259 270 263 253 244 238 240 254 266 280
355 6 11 19 22 23 47 60 103 90 130 165 261 67 131 165 157 172 54 181 189 208 212 260 95 91 37 306 212 200 206 233 283 268 300 303 274 254 229 228 233 240 247 272
321 350 2 13 22 30 30 37 120 250 124 230 61 151 160 164 187 38 149 205 250 126 139 110 126 162 240 227 193 269 209 216 257 278 293 241 73 46 1 206 238 235 252 300
266 321 344 355 6 17 25 26 51 325 126 130 159 177 170 169 169 202 225 176 107 152 191 250 230 193 216 205 243 229 224 231 271 264 268 290 151 28 170 183 138 29 169 332
242 273 313 339 350 355 11 13 18 89 280 185 137 174 191 242 205 164 171 210 186 171 247 236 245 234 109 180 176 325 215 245 230 190 258 273 85 135 158 297 192 92 37 311
230 248 282 312 345 3 358 2 360 4 286 197 165 196 210 164 186 0 141 166 165 188 210 239 240 232 37 223 204 165 173 210 225 235 265 285 112 141 112 239 82 344 333 324
220 228 245 266 301 324 347 350 347 342 268 271 221 220 180 173 212 253 136 158 191 187 225 243 229 257 169 265 148 181 184 180 196 206 229 259 142 142 226 52 21 347 350 338
224 223 225 244 271 299 313 318 331 323 256 243 245 232 225 218 201 166 191 330 149 199 235 243 274 225 195 241 239 206 236 241 291 222 244 71 134 67 83 42 38 5 340 342
228 221 221 236 256 277 296 304 315 330 304 280 242 246 243 240 235 221 184 223 218 235 214 302 300 246 202 227 219 206 217 227 236 319 168 225 207 159 146 133 94 353 330 337
232 230 225 239 259 277 290 298 305 308 274 277 233 232 231 236 230 224 218 219 225 238 213 246 259 259 219 279 339 261 325 157 219 246 257 198 181 160 161 160 134 345 359 355
229 236 241 240 255 273 288 296 301 296 212 255 298 271 252 238 233 232 229 228 213 188 192 211 231 270 257 217 291 244 190 222 217 265 11 257 158 183 183 161 154 7 356 348
226 232 238 249 248 253 279 297 292 136 131 359 270 262 255 241 219 226 219 212 206 214 208 216 223 211 203 255 250 234 199 241 244 252 206 173 150 158 154 142 360 344 338 332
221 223 232 239 242 234 220 232 236 206 325 310 298 231 248 191 156 169 186 191 202 203 232 239 247 195 201 247 247 174 210 212 202 203 189 162 167 164 127 354 337 329 327 321
227 216 230 218 220 224 231 237 236 229 247 252 249 254 243 186 164 172 167 168 193 214 249 252 231 186 221 250 250 250 223 204 180 179 184 160 155 162 339 330 333 332 332 332
222 210 204 194 209 220 233 229 234 229 223 245 226 223 205 161 154 140 152 175 204 217 246 226 202 204 226 236 238 221 198 182 171 155 148 152 212 289 314 326 326 310 310 321
192 173 166 193 180 178 150 162 199 189 220 231 242 209 182 161 167 152 146 190 240 235 206 171 232 250 248 241 227 214 182 170 166 164 177 202 307 315 313 316 319 320 322 318
168 154 149 145 147 132 148 200 202 167 229 218 226 200 177 185 172 158 214 196 196 256 140 231 246 259 241 212 186 175 171 170 172 174 219 296 304 315 318 319 319 319 321 319
185 165 131 139 148 134 198 203 194 217 229 184 183 176 189 169 171 192 196 215 179 250 145 247 257 247 207 178 181 171 165 170 199 276 299 308 314 316 309 306 308 315 321 323
137 116 133 144 153 179 196 189 206 212 192 178 158 151 156 147 176 179 182 214 219 132 226 242 245 357 237 211 200 178 174 187 303 312 313 313 311 309 303 304 312 316 313 317
101 148 146 213 172 226 201 207 157 163 152 150 159 136 151 159 174 186 218 145 182 235 233 238 311 315 194 156 155 172 178 5 341 323 311 314 315 311 304 301 303 308 309 315
124 147 179 204 249 185 173 173 142 142 149 148 135 110 173 155 207 207 205 200 232 225 236 282 346 1 191 194 201 217 267 306 322 319 313 315 319 310 300 298 301 303 306 309
133 150 141 140 195 195 173 176 152 152 151 150 138 138 194 215 215 201 211 222 209 220 191 220 36 23 2 248 248 258 295 306 305 301 307 310 309 303 297 294 294 298 303 305
181 164 193 186 165 161 178 174 178 168 158 189 171 206 219 83 223 219 216 231 251 239 200 305 310 306 301 296 277 269 280 292 295 301 300 301 300 294 291 291 295 300 304 305
Wind_Speed_850mb
40 40 30 23 11 8 6 2 2 17 7 3 8 7 7 3 5 5 4 2 7 6 4 5 4 7 8 6 6 4 3 3 7 2 6 4 9 10 16 7 9 6 6 11
35 38 35 24 17 9 4 3 4 16 7 5 8 8 8 6 5 2 2 3 5 0 5 2 2 4 5 5 3 1 3 5 4 5 6 6 10 20 18 10 5 19 7 1
29 33 36 31 21 14 4 1 1 7 9 9 18 14 8 8 4 4 1 4 2 6 6 2 7 7 4 2 2 6 3 5 13 7 7 3 9 18 27 24 10 12 22 23
23 27 31 32 26 20 4 5 5 3 3 9 9 1 7 12 6 2 2 4 3 3 5 6 6 5 8 5 5 1 5 8 7 19 20 19 25 25 29 37 37 18 18 24
16 20 24 28 29 17 16 3 2 5 7 2 3 2 5 7 6 6 7 2 5 3 1 5 5 10 9 7 14 9 6 5 6 9 12 15 29 36 37 38 39 41 43 46
11 14 18 21 24 21 10 6 7 2 3 1 4 4 7 8 9 3 2 2 6 7 1 1 2 2 3 1 5 16 7 5 3 8 1 20 26 35 38 26 24 27 32 20
7 10 13 14 16 17 14 8 5 4 5 4 1 4 2 6 5 1 5 5 6 5 9 8 4 2 4 10 8 8 7 8 3 9 15 10 5 9 9 34 7 17 20 13
7 6 10 12 12 12 13 13 4 3 2 4 7 9 5 5 4 4 4 4 2 9 4 5 6 6 5 9 5 12 8 12 7 7 10 21 4 1 6 12 7 5 8 5
12 7 8 9 9 9 9 11 9 2 4 5 7 12 12 6 8 6 5 2 11 9 6 6 7 8 1 7 6 2 12 12 12 6 7 7 4 5 3 4 10 8 3 15
18 11 9 9 7 8 7 8 9 2 6 5 11 6 4 6 4 2 7 8 7 8 7 7 8 6 1 6 8 11 8 12 24 18 9 15 11 5 2 6 7 6 15 20
23 17 12 8 7 8 9 6 8 5 3 8 14 13 10 7 5 6 12 8 7 10 9 6 4 6 4 5 2 9 16 16 10 13 11 16 9 12 7 8 6 13 15 15
28 23 17 12 9 10 10 11 10 9 8 11 11 19 22 19 14 7 11 7 3 7 7 4 3 7 6 7 4 10 8 6 3 13 6 12 11 9 9 6 6 9 10 11
30 27 20 16 13 11 12 13 14 14 5 10 9 14 26 28 27 25 11 6 9 5 9 5 3 12 3 7 10 8 11 16 8 5 2 12 20 9 5 3 4 3 7 11
33 28 21 19 18 17 16 16 15 12 5 6 5 13 13 13 16 27 37 22 9 11 6 6 6 7 3 4 7 6 3 15 13 14 24 12 14 11 9 4 1 3 6 12
38 31 26 22 21 19 19 23 21 14 9 2 4 13 17 19 17 15 20 30 19 9 7 6 6 4 5 6 4 14 20 16 15 11 5 6 16 13 8 6 1 6 14 19
41 36 30 25 23 19 14 11 7 8 7 2 3 6 7 8 10 11 16 15 12 13 11 9 9 10 5 6 8 7 21 16 16 18 11 5 10 18 9 6 5 13 19 25
45 38 36 30 27 22 14 9 7 9 3 3 7 3 3 5 6 5 6 14 9 8 7 9 7 8 10 6 14 8 15 17 14 14 11 8 13 11 2 10 17 25 28 26
39 52 42 35 30 26 24 25 20 17 8 7 3 3 4 11 6 5 8 5 7 8 6 3 6 5 8 11 26 34 23 15 14 13 14 15 17 4 6 17 26 35 40 48
57 48 36 30 23 14 18 22 25 24 14 5 7 5 2 13 6 6 6 7 6 4 7 7 7 8 16 20 29 22 28 24 25 23 18 9 3 7 16 23 29 28 38 47
58 51 28 15 14 16 14 7 6 10 9 10 9 6 5 10 8 6 7 4 3 5 7 6 8 13 45 24 22 18 30 30 32 26 15 5 8 15 23 31 36 42 50 54
59 22 16 23 29 16 8 9 9 10 8 13 11 19 8 12 6 5 7 4 4 6 5 6 6 8 17 28 25 27 34 35 25 12 4 10 16 25 33 40 45 50 57 61
47 28 40 34 11 9 7 7 6 10 9 14 13 12 13 8 9 7 6 5 4 8 12 6 8 7 10 23 35 34 35 24 11 9 14 19 26 33 37 43 49 55 61 70
50 11 12 14 9 9 13 15 9 8 12 16 16 10 10 6 8 6 7 10 8 6 6 8 9 6 7 20 34 41 23 6 9 18 24 31 37 43 46 52 54 59 64 69
11 13 11 9 10 10 9 5 4 5 12 27 22 13 7 7 9 5 7 4 5 7 8 11 6 13 16 15 30 46 21 9 27 33 35 42 52 57 55 58 61 63 69 70
8 10 7 9 4 4 10 11 9 11 19 25 14 7 8 6 6 7 5 8 10 10 8 1 15 19 22 29 28 26 25 42 67 62 61 66 68 66 61 62 65 69 70 67
5 4 3 3 6 5 7 11 7 16 21 17 7 5 5 9 6 11 17 8 13 5 4 2 16 26 17 26 38 40 50 70 68 63 75 78 70 65 62 69 74 71 63 64
5 5 7 9 1 6 10 14 12 20 18 5 5 9 13 2 8 8 7 7 1 5 9 19 38 36 33 37 42 54 63 77 75 76 68 65 66 64 69 78 79 70 61 64
Wind_Direction_850mb
20 23 28 23 29 55 52 74 304 348 134 150 73 66 70 79 75 48 67 64 41 132 155 159 163 175 39 138 173 176 83 290 177 151 91 316 302 249 217 252 182 242 296 278
22 23 24 33 21 24 73 337 29 19 94 92 95 118 88 73 138 58 53 81 6 80 138 196 128 110 54 129 200 7 149 218 189 195 181 188 230 214 228 256 290 237 264 173
19 23 26 24 24 14 62 56 4 39 53 39 119 131 124 125 102 118 67 111 169 163 149 28 164 141 109 119 32 10 347 290 268 304 32 40 206 214 212 213 214 238 229 262
8 20 20 23 22 26 49 27 72 85 84 68 98 82 149 146 150 151 184 162 257 194 160 169 159 136 144 167 169 146 287 277 318 283 277 253 255 247 214 220 230 251 267 286
4 9 18 19 21 30 50 26 163 83 92 57 194 158 139 157 136 183 165 210 151 213 282 1 174 183 203 201 184 203 189 266 322 277 259 270 263 253 244 238 240 254 266 280
355 6 11 19 22 23 47 60 103 90 130 165 261 67 131 165 157 172 54 181 189 208 212 260 95 91 37 306 212 200 206 233 283 268 300 303 274 254 229 228 233 240 247 272
321 350 2 13 22 30 30 37 120 250 124 230 61 151 160 164 187 38 149 205 250 126 139 110 126 162 240 227 193 269 209 216 257 278 293 241 73 46 1 206 238 235 252 300
266 321 344 355 6 17 25 26 51 325 126 130 159 177 170 169 169 202 225 176 107 152 191 250 230 193 216 205 243 229 224 231 271 264 268 290 151 28 170 183 138 29 169 332
242 273 313 339 350 355 11 13 18 89 280 185 137 174 191 242 205 164 171 210 186 171 247 236 245 234 109 180 176 325 215 245 230 190 258 273 85 135 158 297 192 92 37 311
230 248 282 312 345 3 358 2 360 4 286 197 165 196 210 164 186 0 141 166 165 188 210 239 240 232 37 223 204 165 173 210 225 235 265 285 112 141 112 239 82 344 333 324
220 228 245 266 301 324 347 350 347 342 268 271 221 220 180 173 212 253 136 158 191 187 225 243 229 257 169 265 148 181 184 180 196 206 229 259 142 142 226 52 21 347 350 338
224 223 225 244 271 299 313 318 331 323 256 243 245 232 225 218 201 166 191 330 149 199 235 243 274 225 195 241 239 206 236 241 291 222 244 71 134 67 83 42 38 5 340 342
228 221 221 236 256 277 296 304 315 330 304 280 242 246 243 240 235 221 184 223 218 235 214 302 300 246 202 227 219 206 217 227 236 319 168 225 207 159 146 133 94 353 330 337
232 230 225 239 259 277 290 298 305 308 274 277 233 232 231 236 230 224 218 219 225 238 213 246 259 259 219 279 339 261 325 157 219 246 257 198 181 160 161 160 134 345 359 355
229 236 241 240 255 273 288 296 301 296 212 255 298 271 252 238 233 232 229 228 213 188 192 211 231 270 257 217 291 244 190 222 217 265 11 257 158 183 183 161 154 7 356 348
226 232 238 249 248 253 279 297 292 136 131 359 270 262 255 241 219 226 219 212 206 214 208 216 223 211 203 255 250 234 199 241 244 252 206 173 150 158 154 142 360 344 338 332
221 223 232 239 242 234 220 232 236 206 325 310 298 231 248 191 156 169 186 191 202 203 232 239 247 195 201 247 247 174 210 212 202 203 189 162 167 164 127 354 337 329 327 321
227 216 230 218 220 224 231 237 236 229 247 252 249 254 243 186 164 172 167 168 193 214 249 252 231 186 221 250 250 250 223 204 180 179 184 160 155 162 339 330 333 332 332 332
222 210 204 194 209 220 233 229 234 229 223 245 226 223 205 161 154 140 152 175 204 217 246 226 202 204 226 236 238 221 198 182 171 155 148 152 212 289 314 326 326 310 310 321
192 173 166 193 180 178 150 162 199 189 220 231 242 209 182 161 167 152 146 190 240 235 206 171 232 250 248 241 227 214 182 170 166 164 177 202 307 315 313 316 319 320 322 318
168 154 149 145 147 132 148 200 202 167 229 218 226 200 177 185 172 158 214 196 196 256 140 231 246 259 241 212 186 175 171 170 172 174 219 296 304 315 318 319 319 319 321 319
185 165 131 139 148 134 198 203 194 217 229 184 183 176 189 169 171 192 196 215 179 250 145 247 257 247 207 178 181 171 165 170 199 276 299 308 314 316 309 306 308 315 321 323
137 116 133 144 153 179 196 189 206 212 192 178 158 151 156 147 176 179 182 214 219 132 226 242 245 357 237 211 200 178 174 187 303 312 313 313 311 309 303 304 312 316 313 317
101 148 146 213 172 226 201 207 157 163 152 150 159 136 151 159 174 186 218 145 182 235 233 238 311 315 194 156 155 172 178 5 341 323 311 314 315 311 304 301 303 308 309 315
124 147 179 204 249 185 173 173 142 142 149 148 135 110 173 155 207 207 205 200 232 225 236 282 346 1 191 194 201 217 267 306 322 319 313 315 319 310 300 298 301 303 306 309
133 150 141 140 195 195 173 176 152 152 151 150 138 138 194 215 215 201 211 222 209 220 191 220 36 23 2 248 248 258 295 306 305 301 307 310 309 303 297 294 294 298 303 305
181 164 193 186 165 161 178 174 178 168 158 189 171 206 219 83 223 219 216 231 251 239 200 305 310 306 301 296 277 269 280 292 295 301 300 301 300 294 291 291 295 300 304 305